Location: Fours
(44.3167°N, 6.7000°E)
Time: 23:03:01
(UTC+00:00)

H-2A R/B - Pass Details

Date: 16 October 2021
Orbit: 733 x 837 km, 98.2° (Epoch: 26 November)

Event Time Altitude Azimuth Distance (km) Brightness Sun altitude
Rises 18:23:28 0° 191° (S) 3,299 5.4 -18.0°
Reaches altitude 10° 18:26:00 10° 201° (SSW) 2,389 4.7 -18.4°
Maximum altitude 18:30:45 33° 265° (W) 1,349 3.9 -19.3°
Drops below altitude 10° 18:35:38 10° 329° (NNW) 2,448 5.1 -20.1°
Sets 18:38:16 0° 339° (NNW) 3,393 5.7 -20.6°
